Location: Bernouville
(49.2864°N, 1.6910°E)
Time: 13:04:05
(UTC+00:00)

Daily predictions for brighter satellites

Satellite Brightness Start Highest point End
(mag) Time Altitude Azimuth Time Altitude Azimuth Time Altitude Azimuth
ATLAS 2AS CENTAUR R/B 3.1 20:29:45 10° NW 20:36:35 58° NE 20:43:08 10° ESE
Meteor 1-22 Rocket 4.4 20:32:08 10° N 20:37:45 64° ENE 20:43:34 10° SSE
BREEZE-M DEB (TANK) 3.5 20:36:27 10° SW 20:39:54 49° SE 20:50:42 10° ENE
COSMOS 2406 3.8 20:35:47 10° SW 20:41:29 65° WNW 20:47:14 10° NNE
Meteor 2-10 Rocket 4.0 20:36:18 10° N 20:41:47 53° ENE 20:47:01 10° SSE
Cosmos 1674 3.8 20:39:45 10° SSW 20:43:03 41° WNW 20:46:21 10° N
ARGOS Delta rocket 3.8 20:39:35 10° S 20:44:02 80° WSW 20:48:27 10° NNW
SL-4 R/B 2.4 20:44:48 10° W 20:48:33 62° N 20:52:35 10° ENE
Cosmos 1733 Rocket 3.9 20:44:32 10° N 20:48:38 36° ENE 20:52:43 10° SE
Cosmos 2278 4.1 20:43:46 10° NNW 20:49:26 65° WSW 20:55:04 10° SSE
Cosmos 1300 3.1 20:50:27 10° N 20:53:52 42° ENE 20:57:15 10° SSE
S3M 4.1 20:47:45 10° N 20:54:11 82° E 21:00:29 10° S
Ariane Rocket 3.2 20:49:32 10° SSE 20:54:34 66° ENE 20:59:38 10° N
Timation 1 Rocket 4.4 20:50:28 10° S 20:56:15 57° ESE 21:02:06 10° NE
SL-27 R/B 3.3 20:54:39 10° SSE 20:56:51 21° ESE 20:59:05 10° NE
Okean-O 3.9 20:53:34 10° SSW 20:57:40 37° W 21:01:48 10° NNW
Cosmos 1441 Rocket 4.0 20:55:18 10° NNW 20:58:46 45° W 21:02:14 10° S
Cosmos 1400 Rocket 2.7 20:56:48 10° S 21:00:39 69° E 21:04:28 10° NNE
Cosmos 2219 Rocket 3.1 20:55:53 10° NNW 21:01:13 40° NE 21:06:33 10° ESE
Meteor 1-13 Rocket 4.4 20:55:31 10° SSW 21:01:19 84° WNW 21:07:01 10° N
COSMOS 2428 4.4 20:57:58 10° NNW 21:02:36 25° NE 21:07:14 10° E
BREEZE-M DEB (TANK) 1.7 21:01:50 10° W 21:03:52 59° SSW 21:06:35 10° ESE
Cosmos 1356 Rocket 3.9 21:00:09 10° SSE 21:04:07 42° E 21:08:06 10° NNE
Cosmos 1908 4.3 21:00:52 10° NNW 21:04:14 39° W 21:07:36 10° SSW
Cosmos 2266 Rocket 4.1 20:59:27 10° S 21:05:48 83° E 21:12:14 10° N
USA 245 3.6 21:02:46 10° S 21:06:20 72° WSW 21:10:53 10° NNW
ATLAS CENTAUR R/B 1.4 21:03:20 10° S 21:06:36 38° ESE 21:09:58 10° NE
Cosmos 1850 Rocket 4.1 21:03:36 10° S 21:08:42 56° ESE 21:13:47 10° NNE
Cosmos 1655 Rocket 4.1 21:05:05 10° S 21:11:24 66° E 21:17:45 10° NNE
Cosmos 1869 Rocket 4.3 21:08:28 10° NNW 21:12:48 53° W 21:17:08 10° S
Meteor 1-4 Rocket 3.6 21:13:07 13° SE 21:14:49 20° E 21:17:08 10° NE
Cosmos 2228 Rocket 3.3 21:10:38 10° S 21:15:06 61° E 21:19:39 10° NNE
MOS 1 Rocket 3.7 21:10:46 10° SSE 21:16:11 86° W 21:21:29 10° NNW
Okean O Rocket 4.2 21:14:36 10° WSW 21:17:04 15° W 21:19:31 10° NW
Cosmos 1953 3.7 21:14:52 10° NNE 21:18:05 24° ENE 21:20:51 12° ESE
Cosmos 1315 Rocket 4.2 21:17:28 13° SE 21:20:05 24° E 21:23:18 10° NE
Cosmos 968 Rocket 3.7 21:17:13 10° S 21:22:10 51° ESE 21:27:12 10° NNE
SPOT 3 Rocket 3.6 21:18:22 10° SSE 21:23:30 80° WSW 21:28:43 10° NNW
SeaSat 1 3.1 21:19:10 10° S 21:23:55 50° WSW 21:28:43 10° NW
Cosmos 2360 Rocket 2.3 21:20:47 10° NNW 21:26:30 84° WSW 21:31:30 14° SSE
Cosmos 1741 Rocket 4.0 21:23:54 10° SSW 21:29:10 78° ESE 21:34:30 10° NNE
Cosmos 1242 Rocket 4.2 21:29:31 11° ESE 21:30:06 11° E 21:31:03 10° ENE
SPOT 5 4.5 21:27:01 10° SSW 21:30:39 26° W 21:34:22 10° NW
BlueWalker 3 3.6 21:31:50 15° SE 21:31:50 15° SE 21:33:49 10° E
Cosmos 1814 Rocket 4.1 21:27:31 10° NNW 21:32:50 75° ENE 21:37:16 15° SSE
MetOp-A 4.2 21:28:25 14° SSE 21:32:58 70° ENE 21:38:12 10° N
Landsat 4 4.1 21:30:19 11° S 21:33:30 51° W 21:36:52 10° NNW
SL-16 R/B 3.3 21:33:03 10° NW 21:38:12 36° WSW 21:43:18 10° S
Landsat 5 3.4 21:36:29 10° NNE 21:40:28 64° ESE 21:44:11 12° S
USA 234 3.2 21:34:31 10° ENE 21:41:05 81° SE 21:47:38 10° SW
Cosmos 2333 Rocket 2.4 21:36:40 10° NNW 21:42:25 70° WSW 21:47:09 15° SSE
SL-14 R/B 3.6 21:40:09 10° SSW 21:43:53 61° WNW 21:47:40 10° N
Cosmos 1862 Rocket 3.6 21:42:44 10° S 21:47:08 88° W 21:51:36 10° N
Cosmos 1346 Rocket 3.3 21:44:11 10° NNW 21:47:57 51° W 21:51:09 13° S
Okean 3 3.3 21:46:07 13° S 21:49:49 82° E 21:54:01 10° NNE
DNEPR-1 R/B 4.4 21:43:10 10° NW 21:50:04 90° SSW 21:54:25 17° SE
Cosmos 1455 2.4 21:49:37 10° N 21:53:03 49° ENE 21:55:03 22° SE
Cosmos 1408 4.5 21:55:12 11° E 21:55:43 11° E 21:56:40 10° ENE
Cosmos 1833 4.1 21:51:13 10° SSW 21:56:50 81° ESE 22:02:29 10° NNE
EXPRESS MD2 2.0 21:55:12 10° W 21:57:39 76° N 21:59:45 10° E
CZ-4C R/B 3.5 21:58:28 13° ESE 21:59:17 14° ESE 22:01:50 10° ENE
RESURS DK-1 4.2 21:56:27 10° WNW 21:59:36 22° WSW 22:02:41 10° SSW
Cosmos 2237 Rocket 3.8 21:56:42 10° NNW 22:01:30 27° NE 22:06:16 10° ESE
H-2A R/B 3.9 21:58:41 14° ESE 22:01:34 29° ENE 22:05:14 10° N
Cosmos 1932 4.4 21:57:07 10° SSW 22:03:23 67° ESE 22:09:37 10° NE
SJ 16-02 1.3 22:00:26 10° SSW 22:04:45 89° WNW 22:09:07 10° NNE
Meteor 1-16 Rocket 4.5 21:59:11 10° NNW 22:05:06 75° W 22:09:50 17° S
Cosmos 2322 3.9 21:59:42 10° NNW 22:05:23 66° ENE 22:09:35 18° SE
Terra 3.6 22:01:41 10° SSW 22:05:34 25° W 22:09:28 10° NW
CZ-2C R/B 4.1 22:02:44 10° NNE 22:06:58 44° E 22:09:29 22° SSE
Aureole 3 4.0 22:07:01 12° SSW 22:10:42 64° WNW 22:15:42 10° N
Cosmos 2322 Rocket 3.7 22:15:40 10° NW 22:20:23 27° WSW 22:24:47 11° SSW
ARIANE 5 R/B 2.5 22:23:17 25° SSE 22:25:47 82° ENE 22:30:08 10° NNW
NOSS 5 (C) 4.2 22:23:21 10° NW 22:26:33 75° NE 22:27:59 29° SE
ATLAS 2AS CENTAUR R/B 3.4 22:21:02 10° NW 22:27:16 40° WSW 22:31:35 18° S
SL-4 R/B 2.1 22:23:36 10° WNW 22:27:34 78° NNE 22:31:47 10° ESE
Cosmos 2297 Rocket 3.5 22:27:17 18° SE 22:29:23 23° ESE 22:33:41 10° NE
Okean 1-7 3.5 22:30:05 16° SSW 22:33:29 58° WNW 22:37:46 10° N
USA 281 3.2 22:34:22 22° SSE 22:38:57 79° WSW 22:45:35 10° NNW
Cosmos 1745 Rocket 4.1 22:34:59 21° S 22:39:21 71° E 22:45:42 10° NNE
Cosmos 1908 Rocket 4.1 22:36:48 10° NNW 22:41:02 51° W 22:43:32 22° SSW
GP-B 3.1 22:36:51 10° N 22:41:16 77° W 22:43:51 24° S
Cosmos 1782 Rocket 3.5 22:39:37 10° N 22:43:58 89° W 22:46:09 29° S
Spot 4 4.0 22:41:21 25° SSE 22:44:05 65° ENE 22:48:52 10° N
ATLAS CENTAUR R/B 3.3 22:41:17 10° W 22:44:20 27° NW 22:47:31 10° NNE
Cosmos 2219 Rocket 3.0 22:39:54 10° NW 22:45:12 41° WSW 22:48:35 21° SSW
Nadezhda 1 Rocket 4.0 22:40:07 10° N 22:46:27 83° W 22:50:31 23° S
Okean 2 4.4 22:43:49 14° SW 22:46:54 41° WNW 22:50:45 10° N
COSMOS 2428 2.7 22:41:47 10° NNW 22:47:30 78° WSW 22:50:54 25° SSE
Meteor 1-4 Rocket 4.4 22:45:15 10° WSW 22:47:35 20° WNW 22:49:56 10° NNW
BREEZE-M DEB (TANK) 3.0 22:47:49 10° WNW 22:51:45 41° N 22:53:48 10° ENE
Cosmos 1953 3.7 22:50:33 10° NNW 22:53:54 29° W 22:55:58 18° SW
Cosmos 1315 Rocket 4.3 22:52:43 11° SW 22:56:05 33° WNW 22:59:44 10° N
H-2A R/B 3.8 22:54:59 10° NE 22:57:51 17° E 22:59:07 15° ESE
PSLV R/B 3.9 22:55:35 10° N 22:59:35 75° WNW 23:01:43 26° SSW
Cosmos 1300 Rocket 3.6 22:56:50 10° NNW 23:01:08 72° W 23:03:09 31° S
Cosmos 1242 Rocket 3.4 23:00:40 22° WSW 23:01:48 30° WNW 23:04:18 10° N
Cosmos 304 Rocket 4.2 23:03:17 29° SSE 23:05:13 46° ESE 23:09:46 10° NE
Cosmos 158 Rocket 4.2 23:02:19 10° NNW 23:07:34 61° WSW 23:10:13 28° S
BlueWalker 3 1.7 23:06:00 13° SW 23:09:14 70° SSE 23:12:58 10° ENE
Cosmos 2360 Rocket 4.3 23:06:36 10° WNW 23:09:35 15° W 23:12:34 10° SW
Cosmos 405 Rocket 3.3 23:07:01 10° N 23:10:39 46° ENE 23:12:07 30° SE
Okean 2 Rocket 4.0 23:11:34 10° N 23:15:48 41° ENE 23:18:04 24° SE
ALOS 2 2.5 23:14:27 32° SSE 23:16:26 89° W 23:20:52 10° NNW
Cosmos 546 4.5 23:15:44 10° WNW 23:19:36 77° SSW 23:22:00 22° ESE
Cosmos 1378 Rocket 4.2 23:20:47 29° SE 23:22:26 42° E 23:26:34 10° NNE
COSMOS 2455 2.8 23:18:35 21° SSW 23:22:45 77° ESE 23:28:48 10° NE
USA 234 4.1 23:17:37 10° ENE 23:23:56 53° NNW 23:30:15 10° W
Cosmos 2333 Rocket 4.5 23:23:33 10° WNW 23:25:37 12° W 23:27:42 10° WSW
NOSS 0 Rocket 4.1 23:20:07 10° NW 23:26:16 61° WSW 23:29:40 27° S
CENTAUR R/B 3.5 23:24:42 22° SE 23:26:41 26° ESE 23:32:05 10° ENE
Cosmos 1408 3.1 23:27:13 30° WSW 23:28:04 37° WNW 23:30:54 10° N
Cosmos 773 Rocket 4.0 23:24:22 10° NNW 23:29:30 72° WSW 23:32:01 30° S
Cosmos 1703 3.3 23:34:51 36° SSW 23:36:11 65° WNW 23:39:52 10° N
H-2A R/B 3.6 23:34:40 25° SW 23:36:23 34° W 23:40:19 10° NNW
Cosmos 2221 Rocket 4.2 23:34:53 30° SE 23:36:38 46° E 23:40:53 10° NNE
Cosmos 1892 3.2 23:37:30 35° SE 23:38:17 41° E 23:41:38 10° NNE
Cosmos 1709 Rocket 4.3 23:34:37 22° SSW 23:38:54 65° WNW 23:45:15 10° N
SL-16 R/B 3.3 23:33:52 10° NNW 23:39:17 42° NE 23:44:39 10° ESE
Cosmos 1174 4.1 23:34:28 10° NW 23:39:36 84° NE 23:41:41 29° SE
Sich 1 Rocket 3.6 23:37:04 10° N 23:41:29 72° E 23:43:22 33° SSE
Cosmos 2242 Rocket 4.3 23:39:46 23° SW 23:42:18 48° WNW 23:46:45 10° N
SJ 16-02 4.1 23:41:30 10° W 23:43:47 14° NW 23:46:05 10° NNW
Cosmos 2237 Rocket 2.2 23:40:26 10° NNW 23:46:04 68° WSW 23:48:59 29° S
Cosmos 1777 Rocket 4.0 23:43:34 29° SSW 23:46:17 77° ESE 23:51:36 10° NNE
CZ-4C R/B 1.8 23:43:30 23° SW 23:46:25 89° SE 23:52:13 10° NE
Cosmos 1503 Rocket 4.0 23:43:28 27° SSW 23:46:28 90° NW 23:51:48 10° NNE
BREEZE-M DEB (TANK) 2.9 23:38:36 10° W 23:48:21 84° SSW 23:51:26 10° ESE
Cosmos 2227 Rocket 2.5 23:50:16 29° S 23:52:54 51° ESE 23:58:23 10° NE
GEOS 3 Rocket 4.2 23:50:12 10° NE 23:55:00 38° ESE 23:56:49 29° SSE
